Regional Weather Roundup
Issued by NWS

Home | Current Version | Previous Version | Text Only | Print | Product List | Glossary On
Versions: 1 2 3 4 5 6 7 8 9 10 11 12 13 14 15 16 17 18 19 20 21 22 23 24 25 26 27 28 29 30 31 32 33 34 35 36 37 38 39 40 41 42 43 44 45 46 47 48 49 50
000
ASUS44 KOUN 281310
RWROK

WEATHER ROUNDUP FOR OKLAHOMA
NATIONAL WEATHER SERVICE NORMAN OK
800 AM CDT FRI JUL 28 2017

NOTE: "FAIR" INDICATES FEW OR NO CLOUDS BELOW 12,000 FEET WITH NO
      SIGNIFICANT WEATHER AND/OR OBSTRUCTIONS TO VISIBILITY.

OKZ001>007-009>012-014-015-017-281400-
NORTHWEST OKLAHOMA AND THE PANHANDLE

CITY           SKY/WX    TMP DP  RH WIND       PRES   REMARKS
GAGE           LGT RAIN  75  72  90 CALM      30.05R FOG
GUYMON         LGT RAIN  71  71 100 CALM      30.09S FOG
ENID/WOODRING  PTSUNNY   77  75  94 N6        29.96R
$$

OKZ016-021>023-033>039-044-045-281400-
SOUTHWEST OKLAHOMA

CITY           SKY/WX    TMP DP  RH WIND       PRES   REMARKS
LAWTON/REGL    SUNNY     79  74  84 N5        29.94R
LAWTON/FT SILL MOSUNNY   78  77  95 N3        29.93R
FREDERICK      SUNNY     80  67  64 SW5       29.91R
CLINTON        CLOUDY    77  72  84 NE8       30.01R
HOBART         PTSUNNY   80  73  79 NE9       29.98R
ALTUS AFB      MOSUNNY   77  71  81 NE8       29.96R
$$

OKZ018>020-024>031-281400-
CENTRAL OKLAHOMA

CITY           SKY/WX    TMP DP  RH WIND       PRES   REMARKS
OKLAHOMA CITY  CLOUDY    77  75  93 N8        29.95R
OKC/WILEY POST CLOUDY    78  76  93 N9        29.96R
OKC/TINKER AFB DRIZZLE   78  74  87 N6        29.95R
STILLWATER     CLOUDY    78  74  87 N8        29.95S
GUTHRIE        LGT RAIN  76  75  97 VRB5      29.95S FOG
$$

OKZ008-013-054>072-281400-
NORTHEAST OKLAHOMA

CITY           SKY/WX    TMP DP  RH WIND       PRES   REMARKS
TULSA          CLOUDY    79  77  94 N7        29.91R
TULSA/JONES    CLOUDY    78  76  93 N3        29.92R
PONCA CITY     CLOUDY    78  72  81 VRB6      29.95S
BARTLESVILLE   CLOUDY    78  74  87 N6        29.94S
MUSKOGEE       CLOUDY    79  78  97 CALM      29.91R
$$

OKZ032-040>043-046>053-073>077-281400-
SOUTH CENTRAL/SOUTHEAST OKLAHOMA

CITY           SKY/WX    TMP DP  RH WIND       PRES   REMARKS
ARDMORE/DWNTWN CLOUDY    79  68  69 CALM      29.93R
MCALESTER      PTSUNNY   81  72  74 SW6       29.91S
$$





USA.gov is the U.S. government's official web portal to all federal, state and local government web resources and services.